CFG1080 KLAX-EDDF

Flight info

Callsign CFG1080
Flight time N/A
Altitude 40000
Route KLAX OSHNN1 BEALE J146 DVC DCT KD51U DCT KD60A DCT LNK DCT KP72G DCT KG81K DCT SSM DCT STAFE DCT VANSI DCT TEALS DCT ALSOP DCT AVUTI DCT 58N050W DCT 5830N04000W DCT 59N030W DCT 59N020W DCT GOMUP DCT GINGA DCT ROBEM DCT RENEQ DCT SOGPO DCT DIXAT DIXA1A EDDF
Aircraft A339/H-L/MCDU

Departure

Time 2026-04-23 00:31
Airport Los Angeles International Airport (KLAX)

Arrival

Time N/A
Airport Frankfurt Main Airport (EDDF)
Time Latitude Longitude Altitude Speed Heading
2026-04-23 00:12 33.94260 -118.41125 132 ft 0 kts 85°
2026-04-23 00:21 33.94259 -118.41149 131 ft 4 kts 86°
2026-04-23 00:21 33.94257 -118.41186 131 ft 4 kts 64°
2026-04-23 00:21 33.94239 -118.41215 128 ft 4 kts 15°
2026-04-23 00:22 33.94224 -118.41218 131 ft 0 kts 354°
2026-04-23 00:24 33.94237 -118.41219 128 ft 9 kts 355°
2026-04-23 00:25 33.94313 -118.41228 127 ft 12 kts 354°
2026-04-23 00:25 33.94396 -118.41241 128 ft 12 kts 352°
2026-04-23 00:25 33.94481 -118.41254 128 ft 12 kts 353°
2026-04-23 00:25 33.94552 -118.41264 129 ft 10 kts 353°
2026-04-23 00:26 33.94622 -118.41274 126 ft 10 kts 353°
2026-04-23 00:26 33.94695 -118.41285 126 ft 11 kts 353°
2026-04-23 00:26 33.94771 -118.41284 123 ft 11 kts 19°
2026-04-23 00:26 33.94799 -118.41226 125 ft 6 kts 72°
2026-04-23 00:27 33.94805 -118.41177 125 ft 6 kts 82°
2026-04-23 00:27 33.94812 -118.41118 131 ft 10 kts 82°
2026-04-23 00:27 33.94825 -118.41002 128 ft 16 kts 82°
2026-04-23 00:27 33.94837 -118.40868 131 ft 16 kts 84°
2026-04-23 00:28 33.94850 -118.40733 127 ft 16 kts 83°
2026-04-23 00:28 33.94864 -118.40596 126 ft 17 kts 82°
2026-04-23 00:28 33.94879 -118.40457 124 ft 17 kts 82°
2026-04-23 00:28 33.94895 -118.40316 131 ft 17 kts 82°
2026-04-23 00:29 33.94910 -118.40173 128 ft 17 kts 84°
2026-04-23 00:29 33.94924 -118.40028 131 ft 17 kts 83°
2026-04-23 00:29 33.94948 -118.39936 128 ft 0 kts 54°
2026-04-23 00:29 33.94965 -118.39923 126 ft 6 kts 31°
2026-04-23 00:30 33.95005 -118.39916 128 ft 6 kts 359°
2026-04-23 00:30 33.95036 -118.39942 129 ft 5 kts 310°
2026-04-23 00:30 33.95039 -118.39983 127 ft 7 kts 266°
2026-04-23 00:30 33.95009 -118.40263 131 ft 70 kts 262°
2026-04-23 00:31 33.94922 -118.41130 131 ft 135 kts 263°
2026-04-23 00:31 33.94790 -118.42414 410 ft 160 kts 260°
2026-04-23 00:31 33.94640 -118.43753 1114 ft 166 kts 261°
2026-04-23 00:31 33.94483 -118.45176 1658 ft 178 kts 263°
2026-04-23 00:32 33.94334 -118.46727 2002 ft 196 kts 265°
2026-04-23 00:32 33.94149 -118.48428 2246 ft 214 kts 251°
2026-04-23 00:32 33.93259 -118.49939 2528 ft 235 kts 221°
2026-04-23 00:32 33.91723 -118.50795 2798 ft 256 kts 193°
2026-04-23 00:33 33.89928 -118.50799 3068 ft 267 kts 175°
2026-04-23 00:33 33.88079 -118.50522 3318 ft 270 kts 175°
2026-04-23 00:33 33.86201 -118.50380 3927 ft 269 kts 180°
2026-04-23 00:33 33.84313 -118.50410 4443 ft 274 kts 184°
2026-04-23 00:34 33.82401 -118.50568 5011 ft 275 kts 186°
2026-04-23 00:34 33.81130 -118.50708 5346 ft 279 kts 187°
2026-04-23 00:34 33.79180 -118.50940 5855 ft 283 kts 188°
2026-04-23 00:34 33.77209 -118.51178 6402 ft 286 kts 188°
2026-04-23 00:35 33.75218 -118.51419 6968 ft 287 kts 188°
2026-04-23 00:35 33.73231 -118.51654 7576 ft 287 kts 188°
2026-04-23 00:35 33.71215 -118.51569 8072 ft 295 kts 168°
2026-04-23 00:35 33.69358 -118.50490 8658 ft 302 kts 143°
2026-04-23 00:36 33.67982 -118.48547 9152 ft 311 kts 118°
2026-04-23 00:36 33.67269 -118.46086 9658 ft 315 kts 103°
2026-04-23 00:36 33.66803 -118.43494 10148 ft 320 kts 102°
2026-04-23 00:36 33.66276 -118.40878 10616 ft 324 kts 105°
2026-04-23 00:37 33.65635 -118.38273 11092 ft 327 kts 108°
2026-04-23 00:37 33.64923 -118.35657 11498 ft 333 kts 107°
2026-04-23 00:37 33.64476 -118.32855 11641 ft 349 kts 94°
2026-04-23 00:37 33.64455 -118.29925 11804 ft 363 kts 87°
2026-04-23 00:38 33.64489 -118.26832 11939 ft 378 kts 88°
2026-04-23 00:38 33.64504 -118.23618 12093 ft 392 kts 88°
2026-04-23 00:38 33.64642 -118.20307 12219 ft 402 kts 77°
2026-04-23 00:38 33.65525 -118.17109 12344 ft 409 kts 59°
2026-04-23 00:39 33.67160 -118.14312 12469 ft 412 kts 42°
2026-04-23 00:39 33.69392 -118.12164 12683 ft 410 kts 26°
2026-04-23 00:39 33.71882 -118.10466 13090 ft 412 kts 24°
2026-04-23 00:39 33.74373 -118.08733 13483 ft 416 kts 26°
2026-04-23 00:40 33.76819 -118.06831 13908 ft 421 kts 29°
2026-04-23 00:40 33.79228 -118.04793 14256 ft 425 kts 31°
2026-04-23 00:40 33.81587 -118.02704 14613 ft 429 kts 31°
2026-04-23 00:40 33.83984 -118.00543 15006 ft 432 kts 31°
2026-04-23 00:41 33.86397 -117.98358 15363 ft 435 kts 31°
2026-04-23 00:41 33.88826 -117.96158 15745 ft 438 kts 31°
2026-04-23 00:41 33.91270 -117.93948 16104 ft 441 kts 31°
2026-04-23 00:41 33.93723 -117.91715 16464 ft 444 kts 32°
2026-04-23 00:42 33.96195 -117.89448 16840 ft 448 kts 32°
2026-04-23 00:42 33.98679 -117.87167 17256 ft 450 kts 32°
2026-04-23 00:42 34.01185 -117.84868 17618 ft 454 kts 32°
2026-04-23 00:42 34.03708 -117.82554 18006 ft 457 kts 32°
2026-04-23 00:43 34.06224 -117.80248 18373 ft 460 kts 32°
2026-04-23 00:43 34.08707 -117.77776 18683 ft 467 kts 38°
2026-04-23 00:43 34.10937 -117.74880 19024 ft 474 kts 46°
2026-04-23 00:43 34.12997 -117.71758 19312 ft 477 kts 47°
2026-04-23 00:44 34.15061 -117.68673 19641 ft 479 kts 46°
2026-04-23 00:44 34.17172 -117.65540 19974 ft 481 kts 46°
2026-04-23 00:44 34.19292 -117.62397 20258 ft 484 kts 46°
2026-04-23 00:44 34.21424 -117.59235 20592 ft 487 kts 46°
2026-04-23 00:45 34.23569 -117.56043 20890 ft 489 kts 46°
2026-04-23 00:45 34.25719 -117.52843 21205 ft 492 kts 46°
2026-04-23 00:45 34.27882 -117.49621 21474 ft 495 kts 46°
2026-04-23 00:45 34.30065 -117.46367 21793 ft 497 kts 46°
2026-04-23 00:46 34.32251 -117.43102 22121 ft 500 kts 46°
2026-04-23 00:46 34.34441 -117.39826 22422 ft 503 kts 46°
2026-04-23 00:46 34.36649 -117.36519 22721 ft 506 kts 46°
2026-04-23 00:46 34.38866 -117.33199 23036 ft 508 kts 46°
2026-04-23 00:47 34.41097 -117.29854 23346 ft 511 kts 46°
2026-04-23 00:47 34.43312 -117.26531 23631 ft 514 kts 46°
2026-04-23 00:47 34.45562 -117.23152 23902 ft 516 kts 46°
2026-04-23 00:47 34.47822 -117.19752 24177 ft 518 kts 46°
2026-04-23 00:48 34.50085 -117.16347 24432 ft 520 kts 46°
2026-04-23 00:48 34.52356 -117.12926 24684 ft 522 kts 46°
2026-04-23 00:48 34.54547 -117.09622 24928 ft 524 kts 46°
2026-04-23 00:48 34.56828 -117.06246 25169 ft 525 kts 45°
2026-04-23 00:49 34.59172 -117.02850 25402 ft 527 kts 45°
2026-04-23 00:49 34.61509 -116.99473 25631 ft 524 kts 45°
2026-04-23 00:49 34.63839 -116.96091 25874 ft 523 kts 45°
2026-04-23 00:49 34.66204 -116.92651 26123 ft 526 kts 45°
2026-04-23 00:50 34.68536 -116.89249 26371 ft 528 kts 45°
2026-04-23 00:50 34.70908 -116.85782 26620 ft 530 kts 45°
2026-04-23 00:50 34.73253 -116.82350 26875 ft 533 kts 45°
2026-04-23 00:50 34.75644 -116.78845 27129 ft 534 kts 45°
2026-04-23 00:51 34.77997 -116.75393 27386 ft 535 kts 45°
2026-04-23 00:51 34.80377 -116.71898 27654 ft 536 kts 45°
2026-04-23 00:51 34.82754 -116.68403 27912 ft 536 kts 45°
2026-04-23 00:51 34.85148 -116.64879 28177 ft 537 kts 45°
2026-04-23 00:52 34.87545 -116.61443 28440 ft 535 kts 43°
2026-04-23 00:52 34.90044 -116.58114 28698 ft 534 kts 41°
2026-04-23 00:52 34.92599 -116.54777 28962 ft 534 kts 41°
2026-04-23 00:52 34.95105 -116.51489 29237 ft 534 kts 42°
2026-04-23 00:53 34.97632 -116.48142 29515 ft 535 kts 42°
2026-04-23 00:53 35.00128 -116.44813 29788 ft 535 kts 42°
2026-04-23 00:53 35.02638 -116.41451 30060 ft 535 kts 42°
2026-04-23 00:53 35.05143 -116.38087 30301 ft 535 kts 42°
2026-04-23 00:54 35.07664 -116.34698 30542 ft 536 kts 42°
2026-04-23 00:54 35.10159 -116.31341 30773 ft 536 kts 42°
2026-04-23 00:54 35.12681 -116.27947 31025 ft 535 kts 42°
2026-04-23 00:54 35.15155 -116.24611 31280 ft 535 kts 42°
2026-04-23 00:55 35.17652 -116.21240 31513 ft 535 kts 42°
2026-04-23 00:55 35.20172 -116.17835 31762 ft 535 kts 42°
2026-04-23 00:55 35.22673 -116.14453 32019 ft 534 kts 42°
2026-04-23 00:55 35.25149 -116.11101 32278 ft 533 kts 41°
2026-04-23 00:56 35.27620 -116.07753 32528 ft 533 kts 41°
2026-04-23 00:56 35.30117 -116.04366 32797 ft 533 kts 41°